Location: *
(38.3914°N, 75.0697°W)
Time: 04:42:11
(UTC+00:00)

Daily predictions for brighter satellites

Satellite Brightness Start Highest point End
(mag) Time Altitude Azimuth Time Altitude Azimuth Time Altitude Azimuth
OE (NEXTSAT) 4.2 00:01:34 10° SW 00:05:03 77° SSE 00:05:50 50° ENE
CSL-04 Rocket 4.2 00:01:09 10° S 00:06:38 63° WSW 00:12:08 10° NNW
STARLINK-81 3.6 00:03:06 10° SW 00:07:03 58° SE 00:08:01 44° E
Cosmos 2346 Rocket 4.4 00:01:27 10° N 00:07:45 87° E 00:13:55 10° S
STARLINK 1040 4.0 00:06:08 10° SSW 00:07:50 27° S 00:07:50 27° S
STARLINK-54 3.5 00:04:54 10° SW 00:08:52 68° SE 00:09:57 45° ENE
HJ-1C 3.2 00:06:55 10° SSE 00:10:14 81° E 00:13:33 10° N
STARLINK-77 3.5 00:06:23 10° SW 00:10:20 63° SE 00:11:13 48° E
STARLINK-64 3.2 00:08:20 10° SW 00:11:56 82° NW 00:12:46 50° NE
STARLINK-25 3.5 00:08:02 10° SW 00:12:01 66° SE 00:12:49 51° E
H-2A R/B 2.4 00:10:05 27° ESE 00:12:26 42° ENE 00:17:29 10° N
STARLINK-71 3.4 00:09:53 10° SW 00:13:53 77° SE 00:14:47 51° ENE
Cosmos 1939 Rocket 4.2 00:10:04 10° S 00:13:57 43° W 00:17:54 10° NNW
STARLINK-42 3.3 00:10:59 10° WSW 00:14:17 64° NW 00:14:51 52° NNE
STARLINK-79 3.4 00:11:18 10° SW 00:15:18 71° SE 00:16:00 56° ENE
ARGOS 3.5 00:15:33 36° E 00:16:33 40° ENE 00:21:35 10° N
STARLINK-78 3.4 00:12:58 10° SW 00:16:58 74° SE 00:17:37 58° ENE
STARLINK-57 3.4 00:14:42 10° SW 00:18:43 81° SE 00:19:22 60° ENE
MOS 1 4.3 00:14:18 12° SE 00:19:23 55° ENE 00:24:54 10° N
YAOGAN 1 4.4 00:15:54 10° SSW 00:19:46 32° W 00:23:39 10° NNW
STARLINK-49 3.4 00:16:15 10° SW 00:20:16 80° SE 00:20:47 65° ENE
STARLINK-27 3.4 00:17:55 10° SW 00:21:56 82° SE 00:22:24 68° ENE
Cosmos 1354 Rocket 4.4 00:18:18 10° NNW 00:23:34 65° WSW 00:28:45 10° S
STARLINK-74 3.4 00:19:33 10° SW 00:23:35 85° SE 00:23:58 71° ENE
STARLINK-39 3.4 00:21:12 10° SW 00:25:12 88° SE 00:25:33 74° NE
STARLINK-31 3.4 00:22:52 10° SW 00:26:53 89° NNW 00:27:10 77° NE
STARLINK-69 3.5 00:24:41 10° SW 00:28:42 79° NW 00:29:02 71° NNE
STARLINK-21 3.4 00:26:11 10° SW 00:30:11 82° NW 00:30:22 79° N
Lacrosse 5 rocket 4.2 00:28:54 10° NW 00:30:40 12° NNW 00:32:28 10° N
STARLINK-45 3.6 00:28:04 10° SW 00:32:05 72° NW 00:32:19 69° N
FALCON 9 R/B 3.4 00:12:04 10° W 00:32:30 62° SSW 00:35:38 33° SE
Cosmos 921 Rocket 3.0 00:28:41 10° SSW 00:33:10 88° WNW 00:34:57 37° NNE
STARLINK-70 3.6 00:29:38 10° SW 00:33:38 72° NW 00:33:46 72° NNW
Cosmos 1633 Rocket 3.5 00:29:29 10° SSW 00:33:46 61° W 00:38:04 10° N
Cosmos 1666 Rocket 4.5 00:29:52 10° SSW 00:34:10 49° W 00:38:32 10° N
STARLINK-76 3.6 00:31:10 10° SW 00:35:09 74° NW 00:35:09 74° NW
STARLINK-23 3.6 00:32:50 10° SW 00:36:46 71° NW 00:36:46 71° NW
NOSS 3-1 (C) 3.3 00:32:30 10° SW 00:37:51 77° NW 00:41:18 26° NNE
STARLINK-32 3.7 00:34:29 10° SW 00:38:21 68° WNW 00:38:21 68° WNW
Ariane Rocket 3.2 00:34:23 10° S 00:39:26 70° WSW 00:44:32 10° NNW
STARLINK-40 3.8 00:36:07 10° WSW 00:39:55 65° WNW 00:39:55 65° WNW
Cosmos 1812 3.1 00:37:00 10° NNW 00:40:29 62° WNW 00:40:29 62° WNW
STARLINK-44 3.9 00:37:47 10° WSW 00:41:30 62° WNW 00:41:30 62° WNW
Cosmos 2233 Rocket 4.2 00:37:04 10° SSW 00:43:10 69° W 00:49:19 10° N
STARLINK-37 4.0 00:39:37 10° WSW 00:43:19 57° WNW 00:43:19 57° WNW
STARLINK-36 4.1 00:41:08 10° WSW 00:44:41 57° WNW 00:44:41 57° WNW
USA 267 3.2 00:42:11 34° NE 00:45:22 85° NW 00:51:55 10° SW
STARLINK-68 4.3 00:43:02 10° WSW 00:46:37 51° WNW 00:46:37 51° WNW
STARLINK-63 4.3 00:44:36 10° WSW 00:48:04 50° WNW 00:48:04 50° WNW
Cosmos 1943 Rocket 2.3 00:43:38 10° SSW 00:49:13 73° WNW 00:52:18 27° NNE
STARLINK-35 4.4 00:46:09 10° WSW 00:49:30 49° WNW 00:49:30 49° WNW
STARLINK-51 4.5 00:47:49 10° WSW 00:51:06 46° WNW 00:51:06 46° WNW
Lacrosse 4 Rocket 4.1 00:56:32 10° W 00:59:23 18° NW 01:02:16 10° N
Meteor 1-27 Rocket 4.3 00:57:33 10° NNW 01:02:55 53° W 01:08:20 10° S
Cosmos 2369 Rocket 2.5 01:03:27 10° SSW 01:09:01 64° WNW 01:09:59 55° NNW
DNEPR-1 R/B 4.4 01:07:09 10° NNW 01:14:04 80° W 01:14:04 80° W
Centaur D AC-28 3.6 01:10:18 10° WSW 01:15:54 27° SSW 01:15:54 27° SSW
USA 234 4.1 01:18:34 37° N 01:18:34 37° N 01:23:30 10° NW
SL-4 R/B 4.5 01:25:42 10° NW 01:27:28 23° NW 01:27:28 23° NW
NOSS 3-1 (A) 4.1 01:26:30 10° SW 01:30:58 47° WNW 01:30:58 47° WNW
CZ-2C R/B 4.5 01:38:46 37° WSW 01:39:32 39° W 01:44:58 10° NNW
H-2A R/B 4.1 01:31:02 10° WSW 01:48:02 35° SSW 01:48:02 35° SSW
H-2A R/B 4.2 01:50:41 20° WSW 01:51:59 22° W 01:56:08 10° NW
CZ-4C R/B 4.4 08:45:12 17° NNE 08:45:12 17° NNE 08:46:40 10° NNE
USA 229 DEB 4.0 08:58:23 64° N 08:59:21 72° NE 09:06:58 10° SE
USA 229 4.0 08:58:26 64° N 08:59:27 71° NE 09:07:02 10° SE
Cosmos 2237 Rocket 4.3 09:08:32 15° N 09:08:32 15° N 09:09:37 10° N
Cosmos 1934 Rocket 4.2 09:02:17 10° N 09:08:34 70° E 09:14:54 10° SSE
USA 267 4.0 09:09:01 10° SSE 09:13:11 39° S 09:13:11 39° S
Lacrosse 4 Rocket 4.1 09:29:07 11° SSE 09:29:07 11° SSE 09:29:19 10° SSE
GEOS 3 Rocket 3.7 09:20:01 10° NNE 09:24:50 74° NNE 09:24:50 74° NNE
Meteor 2-10 Rocket 4.2 09:30:55 43° N 09:30:55 43° N 09:34:25 10° N
Cosmos 1605 Rocket 4.3 09:22:59 10° N 09:29:11 65° E 09:35:14 10° SSE
STARLINK-1067 4.3 09:37:30 52° E 09:37:30 52° E 09:40:56 10° ESE
Lacrosse 5 3.7 09:36:13 19° N 09:38:33 26° NE 09:42:48 10° E
Cosmos 292 Rocket 4.0 09:39:17 34° N 09:41:13 65° ENE 09:45:55 10° SSE
STARLINK-1058 4.1 09:42:18 60° ENE 09:42:18 60° ENE 09:45:58 10° ESE
Cosmos 1943 Rocket 3.4 09:37:51 10° N 09:43:00 38° ENE 09:48:05 10° SE
Cosmos 2297 3.5 09:43:39 56° NW 09:44:51 76° WSW 09:50:28 10° SSE
BREEZE M DEB (TANK) 3.8 09:37:15 22° NW 09:46:11 81° NNE 09:50:17 10° ESE
SL-16 R/B 2.8 09:47:20 40° NNW 09:47:20 40° NNW 09:51:43 10° N
STARLINK-1043 3.8 09:47:04 69° ENE 09:47:04 69° ENE 09:50:57 10° SE
CZ-2C R/B 3.3 09:42:30 10° N 09:45:56 38° NNW 09:45:56 38° NNW
Cosmos 1727 Rocket 4.1 09:44:36 10° S 09:50:47 74° E 09:56:57 10° N
STARLINK-1065 3.6 09:51:18 78° ENE 09:51:18 78° ENE 09:55:20 10° SE
Gbstr 26 Del rocket 4.5 09:54:29 42° W 09:56:44 56° SW 10:04:32 10° SSE
STARLINK-1063 3.5 09:56:39 83° NNW 09:56:48 87° NE 10:00:56 10° SE
Meteor PRIRODA 3.7 09:53:40 10° NNE 09:57:22 74° ESE 09:58:17 48° S
Okean O Rocket 4.2 09:53:59 10° NE 09:57:22 22° E 10:00:43 10° SE
Cosmos 1339 Rocket 4.4 09:54:51 14° SSW 10:00:04 59° W 10:06:05 10° N
STARLINK-1064 3.4 10:01:24 74° WNW 10:01:45 85° SW 10:05:52 10° SE
Cosmos 1603 4.0 09:56:42 10° SSW 10:02:23 69° ESE 10:08:03 10° NNE
NOSS 3-1 (C) 4.3 09:59:08 29° WNW 10:03:12 51° WSW 10:11:35 10° S
FENGYUN 3A 4.1 09:58:59 10° NNE 10:04:23 63° E 10:09:46 10° S
Cosmos 2369 Rocket 3.2 09:58:54 10° N 10:04:25 46° ENE 10:09:52 10° SE
Cosmos 1484 Rocket 2.6 10:00:39 10° N 10:04:36 81° W 10:06:30 30° SSW
ATLAS CENTAUR R/B 3.4 10:08:00 18° NNW 10:08:00 18° NNW 10:09:58 10° N
STARLINK-1041 3.5 10:06:12 64° WNW 10:06:45 77° SW 10:10:52 10° SE
Cosmos 1743 Rocket 3.8 10:02:30 10° N 10:06:49 66° E 10:11:06 10° SSE
CZ-4B R/B 3.8 10:04:42 10° N 10:06:46 30° NNW 10:06:46 30° NNW
Shenzhou-11 Module 3.1 10:09:01 35° ESE 10:09:01 35° ESE 10:11:04 10° E
Cosmos 1943 3.7 10:03:53 10° S 10:09:22 60° ESE 10:14:54 10° NNE
STARLINK-1038 3.5 10:10:56 56° W 10:11:39 70° SW 10:15:45 10° SE
H-2A R/B 2.9 10:10:29 10° N 10:14:38 43° WNW 10:14:56 42° W
Meteor 2-3 Rocket 3.7 10:09:14 10° NNW 10:14:59 80° W 10:20:46 10° S
Cosmos 1842 Rocket 3.6 10:12:09 15° SSW 10:15:43 56° W 10:20:08 10° N
STARLINK-1046 3.6 10:15:45 48° W 10:16:39 62° SW 10:20:44 10° SE
PSLV R/B 3.6 10:13:36 10° NNE 10:17:21 87° WNW 10:21:09 10° SSW
ALOS 2.2 10:13:11 10° NNE 10:17:53 89° ESE 10:22:33 10° SSW
Cosmos 2100 Rocket 4.5 10:11:56 10° N 10:18:06 63° E 10:24:11 10° SSE
Cosmos 1633 4.4 10:15:33 10° NNE 10:18:51 32° ENE 10:22:09 10° SE
STARLINK-1103 4.4 10:17:59 16° SSW 10:20:54 48° SE 10:24:44 10° ENE
STARLINK-1039 3.7 10:20:33 41° W 10:21:38 56° SW 10:25:41 10° SSE
CZ-4B R/B 4.4 10:17:30 10° NNE 10:22:33 43° E 10:27:34 10° S
Cosmos 614 Rocket 3.8 10:18:52 10° SSW 10:23:59 78° WNW 10:29:11 10° NNE
STARLINK-1101 4.2 10:22:32 15° SSW 10:25:37 53° SE 10:29:30 10° ENE
STARLINK-1045 3.8 10:25:20 36° W 10:26:34 50° SW 10:30:35 10° SSE
STARLINK-1128 4.0 10:24:33 16° SSW 10:27:33 57° SE 10:31:27 10° NE
Meteor 2-2 Rocket 4.4 10:22:56 10° S 10:28:57 89° WNW 10:35:01 10° N
STARLINK-1102 4.0 10:26:43 14° SSW 10:29:58 59° SE 10:33:54 10° NE
COSMO-SKYMED 1 2.5 10:27:15 10° S 10:31:33 68° WSW 10:35:54 10° NNW
STARLINK-1050 4.0 10:30:12 31° W 10:31:36 44° SW 10:35:32 10° SSE
STARLINK-1113 3.9 10:28:52 15° SW 10:32:02 63° SE 10:35:56 10° NE
STARLINK-1111 3.8 10:31:08 14° SW 10:34:32 65° SE 10:38:30 10° NE
STARLINK-1119 3.7 10:32:53 14° SW 10:36:13 69° SE 10:40:09 10° NE
STARLINK-1055 4.2 10:34:58 28° W 10:36:32 39° SW 10:40:23 10° SSE
USA 116 3.6 10:33:17 10° SSE 10:36:34 64° ENE 10:39:40 10° N
Cosmos 1459 Rocket 4.1 10:30:39 10° N 10:36:50 82° E 10:43:06 10° S
STARLINK-1073 3.7 10:35:30 12° SW 10:39:05 72° SE 10:43:04 10° NE
Meteor 1-27 4.4 10:33:57 10° SSW 10:39:17 46° WNW 10:44:37 10° N
STARLINK-1114 3.6 10:37:03 13° SW 10:40:33 76° SE 10:44:30 10° NE
Cosmos 921 Rocket 3.6 10:36:23 10° N 10:40:46 61° ENE 10:45:03 10° SSE
STARLINK-1022 4.3 10:39:45 24° W 10:41:29 35° SW 10:45:16 10° SSE
Cosmos 1400 Rocket 4.2 10:39:39 10° SSE 10:43:26 43° E 10:47:15 10° NNE
STARLINK-1121 3.6 10:39:54 11° SW 10:43:39 80° SE 10:47:39 10° NE
PAYLOAD B 4.2 10:38:41 10° NNE 10:44:17 84° WNW 10:49:49 10° SSW
STARLINK-1130 (DARKSAT) 3.5 10:41:13 12° SW 10:44:54 83° SE 10:48:52 10° NE
Cosmos 1869 3.4 10:42:17 10° SSW 10:46:11 49° W 10:50:03 10° N
Cosmos 2221 3.2 10:42:36 10° SW 10:46:25 32° WNW 10:50:16 10° NNW
STARLINK-1042 4.5 10:44:32 21° W 10:46:27 32° SW 10:50:08 10° SSE
NOAA 6 4.1 10:41:20 10° NNE 10:46:32 85° ESE 10:51:41 10° SSW
STARLINK-1106 3.5 10:44:20 10° SW 10:48:16 87° SE 10:52:17 10° NE
STARLINK-1084 3.4 10:45:24 11° SW 10:49:15 89° NW 10:53:14 10° NE
SJ-12 4.5 10:46:27 10° N 10:50:14 36° WNW 10:54:00 10° SW
Cosmos 1802 Rocket 4.1 10:44:38 10° N 10:51:07 87° E 10:57:32 10° S
STARLINK-1112 3.5 10:48:57 10° SW 10:52:57 85° NW 10:56:59 10° NE
DELTA 2 R/B (1) 4.3 10:49:57 10° SW 10:55:20 52° SSE 11:00:42 10° E
SMAP 4.3 10:54:32 10° NNE 10:59:02 46° E 11:03:30 10° S
Helios 1A Rocket 3.1 10:56:53 10° NNE 11:01:03 77° ESE 11:05:09 10° S
Cosmos 1238 Rocket 3.7 11:11:47 10° NNW 11:17:48 63° W 11:22:52 10° S
STARLINK-1070 4.2 11:16:52 10° W 11:19:14 22° NNW 11:21:37 10° NNE
STARLINK-1124 4.4 11:17:58 10° W 11:20:10 19° NNW 11:22:21 10° NNE
STARLINK-1066 4.2 11:18:04 10° W 11:20:26 22° NNW 11:22:48 10° NNE
STARLINK-1081 4.2 11:18:19 10° W 11:20:40 22° NNW 11:23:02 10° NNE
STARLINK-1069 4.2 11:18:46 10° W 11:21:07 22° NNW 11:23:29 10° NNE
STARLINK-1085 4.2 11:18:58 10° W 11:21:19 21° NNW 11:23:40 10° NNE
STARLINK-1086 4.2 11:19:13 10° W 11:21:33 21° NNW 11:23:54 10° NNE
Cosmos 2016 Rocket 4.0 11:15:28 10° NNW 11:21:39 65° W 11:27:52 10° S
STARLINK-1095 4.2 11:19:27 10° W 11:21:47 21° NNW 11:24:08 10° NNE
Lacrosse 5 2.0 11:16:50 10° NW 11:21:50 60° SW 11:26:48 10° SSE
STARLINK-1077 4.2 11:19:41 10° W 11:22:01 21° NNW 11:24:22 10° NNE
STARLINK-1075 4.2 11:19:56 10° W 11:22:15 21° NNW 11:24:35 10° NNE
STARLINK-1093 4.2 11:20:09 10° W 11:22:28 21° NNW 11:24:48 10° NNE
STARLINK-1074 4.3 11:20:23 10° W 11:22:42 21° NNW 11:25:01 10° NNE
STARLINK-1087 4.3 11:20:37 10° W 11:22:55 21° NNW 11:25:15 10° NNE
STARLINK-1088 4.3 11:20:50 10° W 11:23:09 21° NNW 11:25:27 10° NNE
Cosmos 1862 3.3 11:19:24 10° NNW 11:23:20 61° W 11:27:13 10° S
STARLINK-1115 4.3 11:21:03 10° W 11:23:21 21° NNW 11:25:40 10° NNE
H-2A R/B 2.6 11:19:39 10° N 11:23:23 67° WNW 11:27:04 10° SSW
STARLINK-1076 4.3 11:21:17 10° W 11:23:35 21° NNW 11:25:54 10° NNE
STARLINK-1092 4.3 11:21:30 10° W 11:23:49 21° NNW 11:26:07 10° NNE
STARLINK-1080 4.3 11:21:45 10° W 11:24:03 20° NNW 11:26:21 10° NNE
STARLINK-1090 4.3 11:21:58 10° W 11:24:16 20° NNW 11:26:33 10° NNE
STARLINK-1089 4.3 11:22:12 10° W 11:24:29 20° NNW 11:26:46 10° NNE
Cosmos 1805 Rocket 4.1 11:21:13 10° NNW 11:25:12 37° W 11:29:11 10° SSW
Cosmos 1943 Rocket 3.1 11:22:00 10° NW 11:26:29 26° WSW 11:30:58 10° SSW
